Location: Saint-Maurice-d�Ard�che
(44.5216°N, 4.4002°E)
Time: 19:14:24
(UTC+00:00)

NOSS 3-4 (C) - Pass Details

Date: 30 March 2020
Orbit: 894 x 1319 km, 63.4° (Epoch: 01 June)

Event Time Altitude Azimuth Distance (km) Brightness Sun altitude
Rises 21:20:52 0° 322° (NW) 3,824 7.7 -31.4°
Reaches altitude 10° 21:23:24 10° 324° (NW) 2,925 6.9 -31.7°
Enters shadow 21:30:16 80° 33° (NNE) 1,184 3.8 -32.5°
